Location: �clusier
(49.9361°N, 2.7869°E)
Time: 07:17:54
(UTC+00:00)

Cosmos 1025 Rocket - Pass Details

Date: 16 June 2021
Orbit: 593 x 619 km, 82.5° (Epoch: 31 July)

Event Time Altitude Azimuth Distance (km) Brightness Sun altitude
Exits shadow 21:09:57 - 165° (SSE) 2,048 5.1 -8.6°
Reaches altitude 10° 21:10:08 10° 165° (SSE) 1,978 5.1 -8.6°
Maximum altitude 21:14:18 44° 93° (E) 856 3.5 -9.0°
Drops below altitude 10° 21:18:28 10° 22° (NNE) 1,983 6.1 -9.4°
Sets 21:20:46 0° 16° (NNE) 2,889 7.1 -9.6°
